"Period start","avg(HW err(1)/warn(2) (#))","avg(Visibility (m))","avg(Weather code (#))","avg(Precip intensity (mm/h))","min(HW err(1)/warn(2) (#))","max(HW err(1)/warn(2) (#))","std(HW err(1)/warn(2) (#))","med(HW err(1)/warn(2) (#))","min(Visibility (m))","max(Visibility (m))","std(Visibility (m))","med(Visibility (m))","min(Weather code (#))","max(Weather code (#))","std(Weather code (#))","med(Weather code (#))","min(Precip intensity (mm/h))","max(Precip intensity (mm/h))","std(Precip intensity (mm/h))","med(Precip intensity (mm/h))"
2017-11-12 00:00:00,2,18214,78,0.00,2,2,0,2,14194,23355,3002,16758,78,78,0,78,0.00,0.00,0.00,0.00
2017-11-12 00:10:00,2,22407,78,0.00,2,2,0,2,14699,42405,9102,18134,78,78,0,78,0.00,0.00,0.00,0.00
2017-11-12 00:20:00,2,41968,0,0.00,2,2,0,2,37830,50000,3444,40855,0,0,0,0,0.00,0.00,0.00,0.00
2017-11-12 00:30:00,2,38527,0,0.00,2,2,0,2,28132,50000,7080,37176,0,0,0,0,0.00,0.00,0.00,0.00
2017-11-12 00:40:00,2,28071,0,0.00,2,2,0,2,20572,35224,5602,29846,0,0,0,0,0.00,0.00,0.00,0.00
2017-11-12 00:50:00,2,26777,0,0.00,2,2,0,2,20151,33935,4495,26704,0,0,0,0,0.00,0.00,0.00,0.00
2017-11-12 01:00:00,2,26845,0,0.00,2,2,0,2,22553,36533,3766,25312,0,0,0,0,0.00,0.00,0.00,0.00
2017-11-12 01:10:00,2,28779,0,0.00,2,2,0,2,26864,33492,1986,28265,0,0,0,0,0.00,0.00,0.00,0.00
2017-11-12 01:20:00,2,21886,0,0.00,2,2,0,2,16553,26308,2856,21649,0,0,0,0,0.00,0.00,0.00,0.00
2017-11-12 01:30:00,2,14319,0,0.00,2,2,0,2,12097,17380,1768,14062,0,0,0,0,0.00,0.00,0.00,0.00
2017-11-12 01:40:00,2,15301,0,0.00,2,2,0,2,13907,17655,1068,15342,0,0,0,0,0.00,0.00,0.00,0.00
2017-11-12 01:50:00,2,14900,0,0.00,2,2,0,2,11157,20610,2987,14370,0,0,0,0,0.00,0.00,0.00,0.00
2017-11-12 02:00:00,2,13040,53,0.00,2,2,0,2,10772,14575,1359,13697,0,78,35,74,0.00,0.00,0.00,0.00
2017-11-12 02:10:00,2,11373,78,0.01,2,2,0,2,7408,13240,1966,11952,78,78,0,78,0.00,0.05,0.02,0.00
2017-11-12 02:20:00,2,12362,78,0.01,2,2,0,2,6415,18038,4103,11422,78,78,0,78,0.00,0.05,0.02,0.00
2017-11-12 02:30:00,2,15999,78,0.00,2,2,0,2,10777,20807,2703,15399,78,78,0,78,0.00,0.00,0.00,0.00
2017-11-12 02:40:00,2,16588,78,0.00,2,2,0,2,11790,19227,2343,17559,78,78,0,78,0.00,0.00,0.00,0.00
2017-11-12 02:50:00,2,15147,78,0.00,2,2,0,2,10092,17893,2415,16209,78,78,0,78,0.00,0.00,0.00,0.00
2017-11-12 03:00:00,2,12185,78,0.00,2,2,0,2,8320,14254,1713,12340,78,78,0,78,0.00,0.00,0.00,0.00
2017-11-12 03:10:00,2,13548,78,0.00,2,2,0,2,9951,16191,1719,13841,78,78,0,78,0.00,0.00,0.00,0.00
2017-11-12 03:20:00,2,12058,8,0.00,2,2,0,2,8800,14517,1740,12212,0,78,23,0,0.00,0.00,0.00,0.00
2017-11-12 03:30:00,2,11903,0,0.00,2,2,0,2,7194,15800,2620,11050,0,0,0,0,0.00,0.00,0.00,0.00
2017-11-12 03:40:00,2,12288,0,0.00,2,2,0,2,8354,16718,2630,11680,0,0,0,0,0.00,0.00,0.00,0.00
2017-11-12 03:50:00,2,21712,0,0.00,2,2,0,2,16780,25596,2618,22288,0,0,0,0,0.00,0.00,0.00,0.00
2017-11-12 04:00:00,2,26733,0,0.00,2,2,0,2,19623,41142,7212,23539,0,0,0,0,0.00,0.00,0.00,0.00
2017-11-12 04:10:00,2,42742,0,0.00,2,2,0,2,30691,50000,6510,44880,0,0,0,0,0.00,0.00,0.00,0.00
2017-11-12 04:20:00,2,38967,0,0.00,2,2,0,2,30018,46891,5005,38858,0,0,0,0,0.00,0.00,0.00,0.00
2017-11-12 04:30:00,2,31676,0,0.00,2,2,0,2,24603,40670,5778,32510,0,0,0,0,0.00,0.00,0.00,0.00
2017-11-12 04:40:00,2,25181,0,0.00,2,2,0,2,17721,32866,5419,25199,0,0,0,0,0.00,0.00,0.00,0.00
2017-11-12 04:50:00,2,37211,0,0.00,2,2,0,2,22437,45614,8414,39821,0,0,0,0,0.00,0.00,0.00,0.00
2017-11-12 05:00:00,2,43152,0,0.00,2,2,0,2,34633,49566,5849,46234,0,0,0,0,0.00,0.00,0.00,0.00
2017-11-12 05:10:00,2,25684,0,0.00,2,2,0,2,21590,32596,4211,23552,0,0,0,0,0.00,0.00,0.00,0.00
2017-11-12 05:20:00,2,22415,0,0.00,2,2,0,2,16335,26988,3757,22652,0,0,0,0,0.00,0.00,0.00,0.00
2017-11-12 05:30:00,2,24533,0,0.00,2,2,0,2,13822,35259,6612,23714,0,0,0,0,0.00,0.00,0.00,0.00
2017-11-12 05:40:00,2,31905,0,0.00,2,2,0,2,24973,40053,4804,31438,0,0,0,0,0.00,0.00,0.00,0.00
2017-11-12 05:50:00,2,24986,0,0.00,2,2,0,2,16639,36164,5705,24944,0,0,0,0,0.00,0.00,0.00,0.00
2017-11-12 06:00:00,2,24495,0,0.00,2,2,0,2,20168,28922,3170,24871,0,0,0,0,0.00,0.00,0.00,0.00
2017-11-12 06:10:00,2,26917,0,0.00,2,2,0,2,20929,33678,4241,26114,0,0,0,0,0.00,0.00,0.00,0.00
2017-11-12 06:20:00,2,15407,0,0.00,2,2,0,2,11310,21265,3261,14699,0,0,0,0,0.00,0.00,0.00,0.00
2017-11-12 06:30:00,2,21375,0,0.00,2,2,0,2,15631,30798,4323,20452,0,0,0,0,0.00,0.00,0.00,0.00
2017-11-12 06:40:00,2,19196,30,0.00,2,2,0,2,11868,29319,5451,18478,0,78,37,0,0.00,0.00,0.00,0.00
2017-11-12 06:50:00,2,15759,22,0.00,2,2,0,2,9172,20502,3616,16099,0,78,34,0,0.00,0.00,0.00,0.00
2017-11-12 07:00:00,2,15713,78,0.00,2,2,0,2,11606,18612,2091,16307,78,78,0,78,0.00,0.00,0.00,0.00
2017-11-12 07:10:00,2,15391,78,0.00,2,2,0,2,11906,25325,3740,14084,78,78,0,78,0.00,0.00,0.00,0.00
2017-11-12 07:20:00,2,25275,78,0.00,2,2,0,2,16287,38550,7107,24571,78,78,0,78,0.00,0.00,0.00,0.00
2017-11-12 07:30:00,2,26654,78,0.00,2,2,0,2,10402,44248,10135,28849,78,78,0,78,0.00,0.00,0.00,0.00
2017-11-12 07:40:00,2,22696,53,0.01,2,2,0,2,8631,39024,8635,24218,0,78,35,74,0.00,0.05,0.02,0.00
2017-11-12 07:50:00,2,26813,78,0.00,2,2,0,2,23287,32988,3357,25828,78,78,0,78,0.00,0.00,0.00,0.00
2017-11-12 08:00:00,2,34935,78,0.00,2,2,0,2,21462,44894,7030,35558,78,78,0,78,0.00,0.00,0.00,0.00
2017-11-12 08:10:00,2,21481,39,0.00,2,2,0,2,15882,25062,2886,22422,0,78,39,39,0.00,0.00,0.00,0.00
2017-11-12 08:20:00,2,18371,14,0.00,2,2,0,2,12679,26807,4441,17902,0,71,28,0,0.00,0.00,0.00,0.00
2017-11-12 08:30:00,2,15766,78,0.00,2,2,0,2,11573,24408,4182,13852,78,78,0,78,0.00,0.00,0.00,0.00
2017-11-12 08:40:00,2,12808,16,0.00,2,2,0,2,7832,21194,3994,11825,0,78,31,0,0.00,0.00,0.00,0.00
2017-11-12 08:50:00,2,12602,77,0.00,2,2,0,2,8745,15233,2436,13562,71,78,3,78,0.00,0.00,0.00,0.00
2017-11-12 09:00:00,2,13889,8,0.00,2,2,0,2,10942,16782,1681,14146,0,78,23,0,0.00,0.00,0.00,0.00
2017-11-12 09:10:00,2,18750,0,0.00,2,2,0,2,14355,23057,2790,18960,0,0,0,0,0.00,0.00,0.00,0.00
2017-11-12 09:20:00,2,21727,0,0.00,2,2,0,2,19815,24502,1568,21665,0,0,0,0,0.00,0.00,0.00,0.00
2017-11-12 09:30:00,2,24496,0,0.00,2,2,0,2,17876,34756,5645,21258,0,0,0,0,0.00,0.00,0.00,0.00
2017-11-12 09:40:00,2,27589,0,0.00,2,2,0,2,18742,34120,4777,29384,0,0,0,0,0.00,0.00,0.00,0.00
2017-11-12 09:50:00,2,32603,0,0.00,2,2,0,2,27915,37008,2606,33150,0,0,0,0,0.00,0.00,0.00,0.00
2017-11-12 10:00:00,2,33971,0,0.00,2,2,0,2,25529,37799,3457,34083,0,0,0,0,0.00,0.00,0.00,0.00
2017-11-12 10:10:00,2,23695,0,0.00,2,2,0,2,16715,35866,5973,22278,0,0,0,0,0.00,0.00,0.00,0.00
2017-11-12 10:20:00,2,25363,0,0.00,2,2,0,2,15678,36645,6764,24257,0,0,0,0,0.00,0.00,0.00,0.00
2017-11-12 10:30:00,2,39782,0,0.00,2,2,0,2,32944,47850,4636,40130,0,0,0,0,0.00,0.00,0.00,0.00
2017-11-12 10:40:00,2,32596,45,0.00,2,2,0,2,28081,41184,3788,31798,0,78,37,71,0.00,0.00,0.00,0.00
2017-11-12 10:50:00,2,26355,78,0.00,2,2,0,2,21853,29287,2187,26864,78,78,0,78,0.00,0.00,0.00,0.00
2017-11-12 11:00:00,2,22304,78,0.01,2,2,0,2,17864,30566,3562,22037,78,78,0,78,0.00,0.05,0.02,0.00
2017-11-12 11:10:00,2,17570,78,0.01,2,2,0,2,13392,21568,2354,17967,78,78,0,78,0.00,0.05,0.02,0.00
2017-11-12 11:20:00,2,12662,78,0.00,2,2,0,2,11223,14099,882,12595,78,78,0,78,0.00,0.00,0.00,0.00
2017-11-12 11:30:00,2,11732,78,0.04,2,2,0,2,9657,13021,1106,11842,78,78,0,78,0.00,0.05,0.02,0.05
2017-11-12 11:40:00,2,11822,78,0.05,2,2,0,2,9854,13114,924,11982,78,78,0,78,0.05,0.05,0.00,0.05
2017-11-12 11:50:00,2,9576,78,0.04,2,2,0,2,8481,10852,641,9499,78,78,0,78,0.00,0.05,0.02,0.05
2017-11-12 12:00:00,2,9296,78,0.06,2,2,0,2,8553,10552,576,9205,78,78,0,78,0.05,0.10,0.02,0.05
2017-11-12 12:10:00,2,10742,78,0.03,2,2,0,2,9464,12392,855,10570,78,78,0,78,0.00,0.05,0.02,0.05
2017-11-12 12:20:00,2,11908,78,0.02,2,2,0,2,10329,13699,1020,11960,78,78,0,78,0.00,0.05,0.02,0.00
2017-11-12 12:30:00,2,11375,78,0.01,2,2,0,2,9959,12379,757,11388,78,78,0,78,0.00,0.05,0.02,0.00
2017-11-12 12:40:00,2,12885,78,0.01,2,2,0,2,10878,13902,875,13002,78,78,0,78,0.00,0.05,0.02,0.00
2017-11-12 12:50:00,2,10663,78,0.07,2,2,0,2,7653,14484,1875,10538,78,78,0,78,0.00,0.10,0.03,0.05
2017-11-12 13:00:00,2,12340,76,0.04,2,2,0,2,10340,13882,1170,12396,71,78,3,77,0.00,0.10,0.03,0.05
2017-11-12 13:10:00,2,12337,78,0.04,2,2,0,2,9973,13528,956,12302,78,78,0,78,0.00,0.05,0.02,0.05
2017-11-12 13:20:00,2,11618,78,0.04,2,2,0,2,8830,14094,1404,11507,78,78,0,78,0.00,0.10,0.03,0.05
2017-11-12 13:30:00,2,14516,78,0.02,2,2,0,2,12170,16074,1175,14764,78,78,0,78,0.00,0.05,0.02,0.00
2017-11-12 13:40:00,2,13406,78,0.02,2,2,0,2,10218,16464,1930,13599,78,78,0,78,0.00,0.05,0.02,0.00
2017-11-12 13:50:00,2,15194,77,0.02,2,2,0,2,13003,18443,1771,14599,77,78,0,77,0.00,0.05,0.02,0.00
2017-11-12 14:00:00,2,16368,78,0.01,2,2,0,2,14346,19868,1673,16048,78,78,0,78,0.00,0.05,0.02,0.00
2017-11-12 14:10:00,2,14956,78,0.02,2,2,0,2,11099,19038,2166,14858,78,78,0,78,0.00,0.05,0.02,0.00
2017-11-12 14:20:00,2,14738,78,0.04,2,2,0,2,10988,21268,2695,14531,78,78,0,78,0.00,0.05,0.02,0.05
2017-11-12 14:30:00,2,16781,78,0.01,2,2,0,2,12550,22979,2974,16217,78,78,0,78,0.00,0.05,0.02,0.00
2017-11-12 14:40:00,2,13061,78,0.04,2,2,0,2,10113,16159,1901,13004,78,78,0,78,0.00,0.05,0.02,0.05
2017-11-12 14:50:00,2,12629,78,0.04,2,2,0,2,10799,14204,1170,12636,78,78,0,78,0.00,0.05,0.02,0.05
2017-11-12 15:00:00,2,14246,78,0.03,2,2,0,2,13450,16026,734,14020,78,78,0,78,0.00,0.05,0.03,0.03
2017-11-12 15:10:00,2,13317,78,0.04,2,2,0,2,11859,15130,1153,13282,78,78,0,78,0.00,0.05,0.02,0.05
2017-11-12 15:20:00,2,12255,78,0.06,2,2,0,2,9478,14652,1749,12610,77,78,0,78,0.00,0.10,0.03,0.05
2017-11-12 15:30:00,2,13720,78,0.03,2,2,0,2,10706,20126,2657,13220,78,78,0,78,0.00,0.05,0.03,0.03
2017-11-12 15:40:00,2,14049,78,0.01,2,2,0,2,12437,16481,1371,13656,78,78,0,78,0.00,0.05,0.02,0.00
2017-11-12 15:50:00,2,12911,78,0.02,2,2,0,2,10185,16420,2018,12808,78,78,0,78,0.00,0.05,0.02,0.00
2017-11-12 16:00:00,2,14040,78,0.02,2,2,0,2,11652,17663,1619,13745,78,78,0,78,0.00,0.05,0.02,0.00
2017-11-12 16:10:00,2,11710,78,0.05,2,2,0,2,9832,15324,1830,10934,78,78,0,78,0.00,0.10,0.03,0.05
2017-11-12 16:20:00,2,13502,78,0.05,2,2,0,2,11368,14952,1112,13962,78,78,0,78,0.00,0.10,0.03,0.05
2017-11-12 16:30:00,2,13436,78,0.04,2,2,0,2,10514,16358,1713,13332,77,78,0,78,0.00,0.05,0.02,0.05
2017-11-12 16:40:00,2,13994,78,0.02,2,2,0,2,11420,17052,1798,14127,77,78,0,78,0.00,0.05,0.02,0.00
2017-11-12 16:50:00,2,15821,78,0.01,2,2,0,2,10768,21994,3315,15996,77,78,0,78,0.00,0.05,0.02,0.00
2017-11-12 17:00:00,2,14497,77,0.01,2,2,0,2,11739,20671,2895,13221,77,78,0,77,0.00,0.05,0.02,0.00
2017-11-12 17:10:00,2,15323,78,0.01,2,2,0,2,11905,19521,2772,15192,77,78,0,78,0.00,0.05,0.02,0.00
2017-11-12 17:20:00,2,16829,78,0.01,2,2,0,2,12095,20156,2830,17970,77,78,0,78,0.00,0.05,0.02,0.00
2017-11-12 17:30:00,2,18346,78,0.00,2,2,0,2,13944,26893,3691,17239,77,78,0,78,0.00,0.00,0.00,0.00
2017-11-12 17:40:00,2,14239,77,0.03,2,2,0,2,11146,18902,2557,13822,77,78,0,77,0.00,0.05,0.02,0.05
2017-11-12 17:50:00,2,13790,77,0.04,2,2,0,2,11362,16387,1546,13656,77,77,0,77,0.00,0.05,0.02,0.05
2017-11-12 18:00:00,2,11507,77,0.04,2,2,0,2,9530,14431,1530,10798,77,77,0,77,0.00,0.05,0.02,0.05
2017-11-12 18:10:00,2,10595,77,0.04,2,2,0,2,8071,14835,2264,9744,77,77,0,77,0.00,0.05,0.02,0.05
2017-11-12 18:20:00,2,9850,77,0.05,2,2,0,2,6649,13623,2060,9276,77,77,0,77,0.00,0.10,0.03,0.05
2017-11-12 18:30:00,2,8440,77,0.06,2,2,0,2,6898,10929,1200,8348,77,77,0,77,0.05,0.10,0.02,0.05
2017-11-12 18:40:00,2,9187,77,0.06,2,2,0,2,6613,12648,1827,8808,77,77,0,77,0.00,0.10,0.03,0.05
2017-11-12 18:50:00,2,8125,77,0.06,2,2,0,2,5209,11926,2153,7448,77,77,0,77,0.00,0.10,0.03,0.05
2017-11-12 19:00:00,2,8754,77,0.04,2,2,0,2,7376,10830,1064,8419,77,77,0,77,0.00,0.05,0.02,0.05
2017-11-12 19:10:00,2,9577,77,0.03,2,2,0,2,8283,10571,615,9736,77,77,0,77,0.00,0.05,0.02,0.05
2017-11-12 19:20:00,2,10345,77,0.02,2,2,0,2,8027,13111,1604,10505,77,77,0,77,0.00,0.05,0.02,0.00
2017-11-12 19:30:00,2,11220,77,0.02,2,2,0,2,8761,15907,2038,11401,77,78,0,77,0.00,0.05,0.02,0.00
2017-11-12 19:40:00,2,14744,77,0.00,2,2,0,2,10970,18101,2161,14787,77,77,0,77,0.00,0.00,0.00,0.00
2017-11-12 19:50:00,2,9630,77,0.00,2,2,0,2,7159,17122,2678,9059,77,77,0,77,0.00,0.00,0.00,0.00
2017-11-12 20:00:00,2,10952,78,0.00,2,2,0,2,9590,12440,807,10858,77,78,0,78,0.00,0.00,0.00,0.00
2017-11-12 20:10:00,2,10083,77,0.01,2,2,0,2,7723,13205,1604,10464,77,77,0,77,0.00,0.05,0.02,0.00
2017-11-12 20:20:00,2,11586,77,0.00,2,2,0,2,7439,15344,2809,11666,77,77,0,77,0.00,0.00,0.00,0.00
2017-11-12 20:30:00,2,15180,77,0.00,2,2,0,2,9782,21710,3041,14748,77,77,0,77,0.00,0.00,0.00,0.00
2017-11-12 20:40:00,2,13574,77,0.01,2,2,0,2,10887,16021,1689,13736,77,77,0,77,0.00,0.05,0.02,0.00
2017-11-12 20:50:00,2,14214,77,0.00,2,2,0,2,10163,17431,2045,14474,77,77,0,77,0.00,0.00,0.00,0.00
2017-11-12 21:00:00,2,15978,77,0.01,2,2,0,2,12376,18782,1809,16025,77,77,0,77,0.00,0.05,0.02,0.00
2017-11-12 21:10:00,2,18670,77,0.00,2,2,0,2,15585,22288,2231,18430,77,77,0,77,0.00,0.00,0.00,0.00
2017-11-12 21:20:00,2,13897,77,0.01,2,2,0,2,10144,20478,3899,11362,77,77,0,77,0.00,0.05,0.02,0.00
2017-11-12 21:30:00,2,9124,77,0.03,2,2,0,2,6152,12456,1787,8780,77,77,0,77,0.00,0.05,0.03,0.03
2017-11-12 21:40:00,2,5349,77,0.06,2,2,0,2,4271,6402,605,5228,77,77,0,77,0.00,0.10,0.03,0.05
2017-11-12 21:50:00,2,4777,77,0.09,2,2,0,2,4318,5260,332,4740,77,78,0,77,0.05,0.15,0.03,0.10
2017-11-12 22:00:00,2,6244,77,0.06,2,2,0,2,5464,6734,326,6240,77,78,0,77,0.05,0.10,0.02,0.05
2017-11-12 22:10:00,2,6552,77,0.05,2,2,0,2,6041,7124,370,6520,77,78,0,77,0.05,0.05,0.00,0.05
2017-11-12 22:20:00,2,5889,77,0.07,2,2,0,2,4471,7326,922,6151,77,77,0,77,0.05,0.10,0.03,0.08
2017-11-12 22:30:00,2,4499,77,0.11,2,2,0,2,3975,5320,409,4412,77,78,0,77,0.05,0.15,0.03,0.10
2017-11-12 22:40:00,2,5458,78,0.12,2,2,0,2,4761,6722,612,5230,77,78,0,78,0.10,0.15,0.02,0.10
2017-11-12 22:50:00,2,6185,78,0.10,2,2,0,2,5305,6942,567,6320,77,78,0,78,0.05,0.10,0.02,0.10
2017-11-12 23:00:00,2,6471,78,0.14,2,2,0,2,4728,8327,1021,6248,77,78,0,78,0.05,0.25,0.05,0.15
2017-11-12 23:10:00,2,8430,76,0.09,2,2,0,2,6769,9341,822,8654,71,78,3,78,0.05,0.15,0.04,0.10
2017-11-12 23:20:00,2,12306,78,0.04,2,2,0,2,9755,18025,2375,11398,77,78,0,78,0.00,0.05,0.02,0.05
2017-11-12 23:30:00,2,13636,78,0.04,2,2,0,2,11180,17352,1791,13726,78,78,0,78,0.00,0.05,0.02,0.05
2017-11-12 23:40:00,2,8636,78,0.07,2,2,0,2,6262,10567,1267,8722,78,78,0,78,0.05,0.10,0.02,0.05
2017-11-12 23:50:00,2,6668,78,0.10,2,2,0,2,5744,8006,588,6626,77,78,0,78,0.05,0.15,0.02,0.10
